This is the latest recevied weather packets stored in our database for station/object N9PBY-2. If no packets are shown the sender has not sent any weather packets the latest 10 day(s).
| Time | Temp. | Humidity | Pressure | Rain* | Wind** | Luminosity | Snow |
|---|---|---|---|---|---|---|---|
| 1777998607 | 12.78° C | 29% | 1007.2 hPa | 0 mm | - | - | - |
| 1777998006 | 12.78° C | 31% | 1007.3 hPa | 0 mm | - | - | - |
| 1777997406 | 12.78° C | 30% | 1007.2 hPa | 0 mm | - | - | - |
| 1777996806 | 12.78° C | 30% | 1007.2 hPa | 0 mm | - | - | - |
| 1777996207 | 12.78° C | 32% | 1007.2 hPa | 0 mm | - | - | - |
| 1777995606 | 12.78° C | 29% | 1007.3 hPa | 0 mm | - | - | - |
| 1777995007 | 12.22° C | 33% | 1007.5 hPa | 0 mm | - | - | - |
| 1777994407 | 11.67° C | 32% | 1007.4 hPa | 0 mm | - | - | - |
| 1777993806 | 11.11° C | 36% | 1007.2 hPa | 0 mm | - | - | - |
| 1777993207 | 10.56° C | 36% | 1007.4 hPa | 0 mm | - | - | - |
| 1777992606 | 10.56° C | 38% | 1007.5 hPa | 0 mm | - | - | - |
| 1777992007 | 10° C | 37% | 1007.6 hPa | 0 mm | - | - | - |
| 1777991406 | 9.44° C | 38% | 1007.6 hPa | 0 mm | - | - | - |
| 1777990807 | 10° C | 39% | 1007.5 hPa | 0 mm | - | - | - |
| 1777989607 | 9.44° C | 38% | 1007.5 hPa | 0 mm | - | - | - |
| 1777989006 | 9.44° C | 39% | 1007.4 hPa | 0 mm | - | - | - |
| 1777988407 | 9.44° C | 37% | 1007.4 hPa | 0 mm | - | - | - |
| 1777987807 | 10° C | 35% | 1007.5 hPa | 0 mm | - | - | - |
| 1777987207 | 10° C | 38% | 1007.6 hPa | 0 mm | - | - | - |
| 1777986607 | 9.44° C | 35% | 1007.8 hPa | 0 mm | - | - | - |
| 1777986006 | 8.89° C | 38% | 1007.9 hPa | 0 mm | - | - | - |
| 1777985407 | 8.33° C | 41% | 1007.8 hPa | 0 mm | - | - | - |
| 1777984807 | 7.78° C | 44% | 1007.7 hPa | 0 mm | - | - | - |
| 1777984207 | 6.67° C | 47% | 1007.5 hPa | 0 mm | - | - | - |
| 1777983607 | 6.11° C | 48% | 1007.1 hPa | 0 mm | - | - | - |
* Rain latest hour (hover to see other rain measurements)
** Current wind speed in m/s (hover to see current wind gust speed)